カタログに戻る

TURKSAT 3U

運用中通信SSO
NORAD 39152·PAYLOAD·🇹🇷 Turkey

打ち上げ Apr 26, 2013 から Jiuquan Satellite Launch Center

Loading…

次のパス (今後24時間)

TLE

最新Source: Space-Track

元期: Sep 13, 2026, 04:45 UTC

1 39152U 13018C   26256.19848204  .00002816  00000-0  25038-3 0  9998
2 39152  97.7914 346.6763 0012559 159.7535 200.4187 14.96869810724255

AllMySatでTURKSAT 3Uをリアルタイム追跡

Download on the App Store